Track STARLINK-1659 now! 10-day predictions STARLINK-1659 is classified as:
1 46534U 20070C 21108.88302550 -.00000440 00000-0 -10607-4 0 9992 2 46534 53.0572 273.4089 0001933 97.4491 262.6718 15.06400116 30345